| time (UTC) | temp F | wind direction | speed MPH | gust MPH | rain 1hr in | rain 24hr in | rain mn in | humidity % | barometer mb |
| 20260510193009 | 66 | 186 | 2.0 | 7.0 | 0.00 | 0.01 | 0.00 | 57 | 1012.4 |
| 20260510191504 | 66 | 309 | 0.0 | 9.0 | 0.00 | 0.01 | 0.00 | 59 | 1012.4 |
| 20260510184602 | 65 | 100 | 0.0 | 5.0 | 0.00 | 0.01 | 0.00 | 62 | 1012.8 |
| 20260510183051 | 65 | 166 | 1.0 | 6.0 | 0.00 | 0.01 | 0.00 | 62 | 1012.7 |
| 20260510181553 | 66 | 17 | 1.0 | 7.0 | 0.00 | 0.01 | 0.00 | 61 | 1012.7 |
| 20260510180043 | 67 | 5 | 1.0 | 5.0 | 0.00 | 0.01 | 0.00 | 60 | 1012.7 |
| 20260510174537 | 68 | 215 | 2.0 | 5.0 | 0.00 | 0.01 | 0.00 | 62 | 1012.8 |
| 20260510173036 | 67 | 157 | 0.0 | 5.0 | 0.00 | 0.01 | 0.00 | 64 | 1012.5 |
| 20260510171528 | 66 | 331 | 2.0 | 6.0 | 0.00 | 0.01 | 0.00 | 64 | 1012.7 |
| 20260510170024 | 65 | 185 | 1.0 | 6.0 | 0.00 | 0.01 | 0.00 | 66 | 1012.8 |
| 20260510164521 | 64 | 150 | 1.0 | 4.0 | 0.00 | 0.01 | 0.00 | 64 | 1012.8 |
| 20260510163019 | 61 | 34 | 0.0 | 4.0 | 0.00 | 0.01 | 0.00 | 66 | 1013.1 |
| 20260510161511 | 62 | 34 | 0.0 | 8.0 | 0.00 | 0.01 | 0.00 | 66 | 1013.1 |
| 20260510160017 | 63 | 334 | 1.0 | 8.0 | 0.00 | 0.01 | 0.00 | 66 | 1012.9 |
| 20260510154502 | 64 | 120 | 0.0 | 2.0 | 0.00 | 0.01 | 0.00 | 60 | 1013.0 |
| 20260510153102 | 62 | 110 | 0.0 | 1.0 | 0.00 | 0.01 | 0.00 | 58 | 1013.1 |
| 20260510151556 | 62 | 101 | 0.0 | 1.0 | 0.00 | 0.01 | 0.00 | 56 | 1013.1 |
| 20260510150054 | 62 | 97 | 0.0 | 1.0 | 0.00 | 0.01 | 0.00 | 51 | 1012.8 |
| 20260510144545 | 62 | 97 | 0.0 | 2.0 | 0.00 | 0.01 | 0.00 | 44 | 1012.6 |
| 20260510143040 | 61 | 95 | 0.0 | 3.0 | 0.00 | 0.01 | 0.00 | 30 | 1012.7 |
| 20260510141536 | 60 | 158 | 0.0 | 2.0 | 0.00 | 0.01 | 0.00 | 29 | 1012.5 |
| 20260510140031 | 59 | 158 | 0.0 | 0.0 | 0.00 | 0.01 | 0.00 | 14 | 1012.6 |
| 20260510134528 | 58 | 158 | 0.0 | 1.0 | 0.00 | 0.01 | 0.00 | 12 | 1012.7 |
| 20260510133024 | 57 | 159 | 0.0 | 0.0 | 0.00 | 0.01 | 0.00 | 8 | 1012.6 |
| 20260510131518 | 56 | 158 | 0.0 | 2.0 | 0.00 | 0.01 | 0.00 | 7 | 1012.6 |
| 20260510130014 | 55 | 150 | 0.0 | 0.0 | 0.00 | 0.01 | 0.00 | 8 | 1012.5 |
| 20260510124510 | 54 | 150 | 0.0 | 0.0 | 0.00 | 0.01 | 0.00 | 8 | 1012.5 |
| 20260510123008 | 53 | 150 | 0.0 | 0.0 | 0.00 | 0.01 | 0.00 | 9 | 1012.4 |
| 20260510121601 | 53 | 150 | 0.0 | 0.0 | 0.00 | 0.01 | 0.00 | 9 | 1012.2 |
| 20260510120056 | 53 | 150 | 0.0 | 1.0 | 0.00 | 0.01 | 0.00 | 9 | 1012.2 |
| 20260510114552 | 53 | 150 | 0.0 | 3.0 | 0.00 | 0.01 | 0.00 | 9 | 1012.1 |
| 20260510113048 | 53 | 151 | 0.0 | 0.0 | 0.00 | 0.01 | 0.00 | 9 | 1012.1 |
| 20260510111543 | 52 | 151 | 0.0 | 0.0 | 0.00 | 0.01 | 0.00 | 10 | 1012.0 |
| 20260510110039 | 52 | 151 | 0.0 | 0.0 | 0.00 | 0.01 | 0.00 | 10 | 1012.0 |
| 20260510104536 | 52 | 151 | 0.0 | 0.0 | 0.00 | 0.01 | 0.00 | 10 | 1011.9 |
| 20260510103030 | 52 | 151 | 0.0 | 0.0 | 0.00 | 0.01 | 0.00 | 10 | 1011.8 |
| 20260510101525 | 52 | 151 | 0.0 | 0.0 | 0.00 | 0.01 | 0.00 | 10 | 1011.5 |
| 20260510100021 | 52 | 151 | 0.0 | 0.0 | 0.00 | 0.01 | 0.00 | 10 | 1011.1 |
| 20260510094532 | 52 | 151 | 0.0 | 0.0 | 0.00 | 0.01 | 0.00 | 10 | 1010.8 |
| 20260510093012 | 52 | 151 | 0.0 | 0.0 | 0.00 | 0.01 | 0.00 | 10 | 1010.9 |
| 20260510091508 | 52 | 151 | 0.0 | 0.0 | 0.00 | 0.01 | 0.00 | 10 | 1010.8 |
| 20260510090005 | 52 | 155 | 0.0 | 0.0 | 0.00 | 0.01 | 0.00 | 10 | 1010.6 |
| 20260510084604 | 52 | 155 | 0.0 | 0.0 | 0.00 | 0.01 | 0.00 | 10 | 1010.4 |
| 20260510083055 | 52 | 155 | 0.0 | 0.0 | 0.00 | 0.01 | 0.00 | 11 | 1010.4 |
| 20260510081556 | 52 | 156 | 0.0 | 0.0 | 0.00 | 0.01 | 0.00 | 11 | 1010.6 |
| 20260510080048 | 52 | 156 | 0.0 | 1.0 | 0.00 | 0.01 | 0.00 | 11 | 1010.4 |
| 20260510074542 | 52 | 56 | 0.0 | 1.0 | 0.00 | 0.01 | 0.00 | 11 | 1010.5 |
| 20260510073037 | 52 | 56 | 0.0 | 0.0 | 0.00 | 0.01 | 0.00 | 11 | 1010.6 |
| 20260510071533 | 52 | 56 | 0.0 | 0.0 | 0.00 | 0.01 | 0.00 | 11 | 1011.3 |
| 20260510070034 | 53 | 56 | 0.0 | 0.0 | 0.00 | 0.01 | 0.00 | 11 | 1011.1 |
| 20260510064527 | 53 | 56 | 0.0 | 0.0 | 0.00 | 0.01 | 0.00 | 11 | 1011.5 |
| 20260510063025 | 53 | 56 | 0.0 | 1.0 | 0.00 | 0.01 | 0.00 | 11 | 1011.4 |
| 20260510061528 | 53 | 56 | 0.0 | 0.0 | 0.00 | 0.01 | 0.00 | 11 | 1011.1 |
| 20260510060023 | 53 | 56 | 0.0 | 2.0 | 0.00 | 0.01 | 0.00 | 11 | 1011.0 |
| 20260510054522 | 53 | 138 | 0.0 | 0.0 | 0.00 | 0.01 | 0.00 | 11 | 1010.6 |
| 20260510053021 | 53 | 138 | 0.0 | 0.0 | 0.00 | 0.01 | 0.00 | 12 | 1010.8 |
| 20260510051530 | 53 | 138 | 0.0 | 0.0 | 0.00 | 0.01 | 0.00 | 12 | 1010.8 |
| 20260510050020 | 53 | 139 | 0.0 | 0.0 | 0.00 | 0.01 | 0.00 | 13 | 1011.0 |
| 20260510044518 | 53 | 139 | 0.0 | 1.0 | 0.00 | 0.01 | 0.00 | 13 | 1010.8 |
| 20260510043022 | 53 | 138 | 0.0 | 0.0 | 0.00 | 0.01 | 0.00 | 12 | 1010.8 |
| 20260510041514 | 53 | 137 | 0.0 | 3.0 | 0.00 | 0.01 | 0.00 | 12 | 1010.6 |
| 20260510040012 | 53 | 148 | 1.0 | 5.0 | 0.00 | 0.01 | 0.00 | 12 | 1010.6 |
| 20260510034508 | 54 | 171 | 0.0 | 10.0 | 0.00 | 0.01 | 0.01 | 11 | 1010.6 |
| 20260510033003 | 54 | 101 | 0.0 | 6.0 | 0.00 | 0.01 | 0.01 | 11 | 1010.6 |
| 20260510031603 | 54 | 127 | 0.0 | 5.0 | 0.00 | 0.01 | 0.01 | 11 | 1010.8 |
| 20260510030054 | 54 | 105 | 0.0 | 1.0 | 0.00 | 0.01 | 0.01 | 11 | 1010.5 |
| 20260510024607 | 54 | 165 | 0.0 | 4.0 | 0.00 | 0.01 | 0.01 | 11 | 1010.8 |
| 20260510023046 | 54 | 131 | 0.0 | 3.0 | 0.00 | 0.01 | 0.01 | 11 | 1010.7 |
| 20260510021541 | 54 | 122 | 0.0 | 2.0 | 0.00 | 0.01 | 0.01 | 11 | 1010.5 |
| 20260510020037 | 54 | 137 | 0.0 | 5.0 | 0.01 | 0.01 | 0.01 | 11 | 1010.7 |
| 20260510014532 | 54 | 137 | 0.0 | 0.0 | 0.01 | 0.01 | 0.01 | 12 | 1010.9 |
| 20260510013028 | 54 | 137 | 0.0 | 0.0 | 0.01 | 0.01 | 0.01 | 12 | 1010.8 |
| 20260510011523 | 54 | 137 | 0.0 | 0.0 | 0.01 | 0.01 | 0.01 | 12 | 1010.6 |
| 20260510010019 | 54 | 137 | 0.0 | 3.0 | 0.00 | 0.00 | 0.00 | 12 | 1010.3 |
| 20260510004516 | 54 | 136 | 0.0 | 2.0 | 0.00 | 0.00 | 0.00 | 13 | 1010.3 |
| 20260510003011 | 54 | 135 | 0.0 | 3.0 | 0.00 | 0.00 | 0.00 | 13 | 1010.2 |
| 20260510001508 | 54 | 135 | 0.0 | 3.0 | 0.00 | 0.00 | 0.00 | 15 | 1010.0 |
| 20260510000006 | 54 | 147 | 0.0 | 2.0 | 0.00 | 0.00 | 0.00 | 15 | 1009.7 |
| 20260509234558 | 55 | 144 | 0.0 | 3.0 | 0.00 | 0.00 | 0.00 | 15 | 1009.6 |
| 20260509233054 | 55 | 157 | 0.0 | 1.0 | 0.00 | 0.00 | 0.00 | 15 | 1009.3 |
| 20260509231600 | 56 | 157 | 0.0 | 5.0 | 0.00 | 0.00 | 0.00 | 14 | 1009.3 |
| 20260509230044 | 56 | 140 | 0.0 | 4.0 | 0.00 | 0.00 | 0.00 | 13 | 1009.3 |
| 20260509224539 | 56 | 130 | 0.0 | 5.0 | 0.00 | 0.00 | 0.00 | 12 | 1009.3 |
| 20260509223043 | 56 | 123 | 0.0 | 2.0 | 0.00 | 0.00 | 0.00 | 10 | 1009.4 |
| 20260509221533 | 56 | 115 | 0.0 | 6.0 | 0.00 | 0.00 | 0.00 | 9 | 1009.6 |
| 20260509220026 | 56 | 151 | 0.0 | 2.0 | 0.00 | 0.00 | 0.00 | 8 | 1009.6 |
| 20260509214522 | 55 | 133 | 0.0 | 2.0 | 0.00 | 0.00 | 0.00 | 8 | 1009.7 |
| 20260509213018 | 55 | 132 | 0.0 | 3.0 | 0.00 | 0.00 | 0.00 | 8 | 1009.7 |
| 20260509211516 | 55 | 69 | 0.0 | 1.0 | 0.00 | 0.00 | 0.00 | 8 | 1009.6 |
| 20260509210011 | 55 | 69 | 0.0 | 4.0 | 0.00 | 0.00 | 0.00 | 8 | 1009.8 |
| 20260509204505 | 55 | 84 | 0.0 | 1.0 | 0.00 | 0.00 | 0.00 | 8 | 1010.0 |
| 20260509203005 | 55 | 84 | 0.0 | 1.0 | 0.00 | 0.00 | 0.00 | 8 | 1010.1 |
| 20260509201558 | 54 | 144 | 0.0 | 1.0 | 0.00 | 0.00 | 0.00 | 8 | 1010.2 |
| 20260509200055 | 54 | 145 | 0.0 | 3.0 | 0.00 | 0.00 | 0.00 | 8 | 1010.3 |
| 20260509194547 | 54 | 103 | 0.0 | 3.0 | 0.00 | 0.00 | 0.00 | 9 | 1010.5 |